Location: Unspecified
(0.0000°N, 0.0000°E)
Time: 21:12:58
(UTC+00:00)

Vanguard 1 - Visible Passes

Search period start: 01 February 2015 00:00
Search period end: 11 February 2015 00:00
Orbit: 653 x 3833 km, 34.2° (Epoch: 30 January)

Date Brightness Start Highest point End Pass type
(mag) Time Alt. Az. Time Alt. Az. Time Alt. Az.
01 Feb 13.1 01:35:04 10° SW 02:10:02 37° NE 02:17:17 10° NE visible
01 Feb 12.8 04:22:51 31° NW 04:25:30 32° NW 04:37:15 10° NNE visible
01 Feb 13.6 21:10:26 10° SSW 21:23:16 24° SSE 21:30:50 21° SE visible
01 Feb 13.3 23:31:54 10° SW 00:18:05 - ENE 23:43:28 40° SSW visible
02 Feb 13.0 02:30:53 38° NNE 02:30:53 38° NNE 02:38:42 10° NE visible
02 Feb 13.0 04:43:41 23° NW 04:47:49 24° NNW 04:57:53 10° NNE visible
02 Feb 13.8 19:13:31 10° S 19:16:20 11° SSE 19:20:18 10° SSE visible
02 Feb 13.4 21:31:34 10° SSW 21:46:20 31° SSE 21:49:49 30° SE visible
02 Feb 13.4 23:53:26 10° SW 00:38:46 - ENE 00:02:28 35° SW visible
03 Feb 12.9 02:51:33 37° NNE 02:51:33 37° NNE 02:59:56 10° NE visible
03 Feb 13.1 05:04:20 16° NW 05:10:22 18° NNW 05:18:17 10° N visible
03 Feb 13.7 19:33:51 10° S 19:39:42 13° SSE 19:48:02 10° SE visible
03 Feb 13.2 21:52:41 10° SSW 22:08:56 38° SSE 22:08:56 38° SSE visible
04 Feb 13.6 00:15:08 10° SW 00:59:17 10° NE 00:21:35 27° SW visible
04 Feb 13.0 03:12:04 35° N 03:12:04 35° N 03:21:01 10° NNE visible
04 Feb 13.3 05:25:45 10° NW 05:33:12 13° NNW 05:38:14 10° N visible
04 Feb 13.6 19:54:28 10° S 20:02:55 17° SSE 20:15:15 10° ESE visible
04 Feb 13.1 22:13:50 10° SW 22:28:10 45° SSE 22:28:10 45° SSE visible
05 Feb 13.8 00:37:06 10° WSW 01:19:41 13° NE 01:20:52 10° NE visible
05 Feb 13.0 03:32:26 31° NNW 03:32:26 31° NNW 03:41:59 10° NNE visible
05 Feb 13.5 20:15:12 10° SSW 20:25:54 22° SSE 20:34:50 18° ESE visible
05 Feb 13.0 22:35:05 10° SW 22:47:30 48° S 22:47:30 48° S visible
06 Feb 13.7 00:59:24 10° WSW 01:39:57 17° NE 01:42:23 10° NE visible
06 Feb 13.2 03:52:43 26° NNW 03:52:43 26° NNW 04:02:53 10° NNE visible
06 Feb 13.3 20:36:00 10° SSW 20:48:36 29° SSE 20:54:15 27° SE visible
06 Feb 13.1 22:56:29 10° SW 23:06:56 45° SSW 23:06:56 45° SSW visible
07 Feb 13.6 02:00:08 20° NNE 02:00:08 20° NNE 02:03:43 10° NE visible
07 Feb 13.3 04:12:53 20° NNW 04:13:34 20° NNW 04:23:43 10° NNE visible
07 Feb 13.6 18:42:15 10° SSE 18:43:31 10° SSE 18:46:04 10° SSE visible
07 Feb 13.1 20:56:52 10° SSW 21:11:04 38° SE 21:13:47 37° SE visible
07 Feb 13.3 23:18:05 10° SW 23:26:28 37° SW 23:26:28 37° SW visible
08 Feb 13.5 02:20:14 22° NNE 02:20:14 22° NNE 02:24:57 10° NNE visible
08 Feb 13.4 04:32:59 15° NW 04:36:44 16° NNW 04:44:32 10° N visible
08 Feb 13.5 19:00:27 10° S 19:06:24 14° SSE 19:15:19 10° ESE visible
08 Feb 12.8 21:17:51 10° SSW 21:33:19 48° SE 21:33:23 48° SE visible
08 Feb 13.5 23:39:56 10° WSW 00:27:32 - NE 23:46:05 29° WSW visible
09 Feb 13.5 02:40:16 23° N 02:40:16 23° N 02:46:07 10° NNE visible
09 Feb 13.5 04:53:00 10° NW 05:00:05 13° NNW 05:05:24 10° N visible
09 Feb 13.3 19:20:31 10° S 19:29:02 20° SSE 19:40:23 12° ESE visible
09 Feb 12.7 21:38:59 10° SW 21:53:05 58° SSE 21:53:05 58° SSE visible
10 Feb 13.8 00:02:06 10° WSW 00:47:31 - NE 00:05:47 20° WSW visible
10 Feb 13.5 03:00:14 22° N 03:00:14 22° N 03:07:17 10° NNE visible
10 Feb 13.5 05:19:41 10° NNW 05:23:33 11° N 05:26:28 10° N visible
10 Feb 13.1 19:40:57 10° SSW 19:51:24 27° SE 20:00:09 21° ESE visible
10 Feb 12.6 22:00:16 10° SW 22:12:52 61° SSW 22:12:52 61° SSW visible
